Location: *
(45.1961°N, 1.9694°E)
Time: 18:57:18
(UTC+00:00)

NOSS 3-1 (C) - Pass Details

Date: 25 August 2019
Orbit: 775 x 1433 km, 63.4° (Epoch: 01 September)

Event Time Altitude Azimuth Distance (km) Brightness Sun altitude
Rises 21:48:35 0° 319° (NW) 4,011 8.0 -27.4°
Reaches altitude 10° 21:51:12 10° 314° (NW) 3,135 7.1 -27.7°
Maximum altitude 21:58:37 53° 241° (WSW) 1,574 4.5 -28.4°
Enters shadow 22:00:39 44° 200° (SSW) 1,776 4.5 -28.6°
